N7954F KLAX-KSAN

Flight info

Callsign N7954F
Flight time N/A
Altitude 5000
Route SLI8 SLI V64 V363 DANAH V23 MZB
Aircraft P28B/L-SG/L

Departure

Time 2026-04-26 22:47
Airport Los Angeles International Airport (KLAX)

Arrival

Time N/A
Airport San Diego International Airport (KSAN)
Time Latitude Longitude Altitude Speed Heading
2026-04-26 22:23 33.94262 -118.43164 120 ft 0 kts 262°
2026-04-26 22:40 33.94262 -118.43165 120 ft 3 kts 264°
2026-04-26 22:41 33.94295 -118.43170 119 ft 15 kts 18°
2026-04-26 22:41 33.94421 -118.43134 120 ft 12 kts
2026-04-26 22:41 33.94486 -118.43137 120 ft 14 kts
2026-04-26 22:41 33.94534 -118.43122 120 ft 14 kts 11°
2026-04-26 22:42 33.94603 -118.43030 119 ft 19 kts 81°
2026-04-26 22:42 33.94622 -118.42840 120 ft 27 kts 83°
2026-04-26 22:42 33.94648 -118.42590 119 ft 31 kts 83°
2026-04-26 22:42 33.94673 -118.42341 120 ft 29 kts 82°
2026-04-26 22:43 33.94697 -118.42104 120 ft 28 kts 83°
2026-04-26 22:43 33.94723 -118.41855 120 ft 32 kts 83°
2026-04-26 22:43 33.94753 -118.41557 120 ft 41 kts 83°
2026-04-26 22:43 33.94803 -118.41215 120 ft 42 kts 83°
2026-04-26 22:44 33.94837 -118.40880 120 ft 39 kts 83°
2026-04-26 22:44 33.94869 -118.40566 120 ft 37 kts 83°
2026-04-26 22:44 33.94899 -118.40270 120 ft 35 kts 83°
2026-04-26 22:44 33.94921 -118.40055 120 ft 8 kts 81°
2026-04-26 22:45 33.94939 -118.39964 119 ft 15 kts 69°
2026-04-26 22:45 33.94976 -118.39920 119 ft 8 kts 12°
2026-04-26 22:45 33.95039 -118.39941 120 ft 4 kts 290°
2026-04-26 22:45 33.95041 -118.39953 120 ft 0 kts 266°
2026-04-26 22:46 33.95021 -118.40138 121 ft 53 kts 258°
2026-04-26 22:46 33.94965 -118.40721 232 ft 83 kts 260°
2026-04-26 22:46 33.94914 -118.41437 520 ft 85 kts 262°
2026-04-26 22:47 33.94835 -118.42138 796 ft 82 kts 258°
2026-04-26 22:47 33.94732 -118.42742 1221 ft 74 kts 256°
2026-04-26 22:47 33.94614 -118.43342 1612 ft 74 kts 257°
2026-04-26 22:47 33.94471 -118.43945 1966 ft 76 kts 253°
2026-04-26 22:48 33.94295 -118.44587 2293 ft 81 kts 256°
2026-04-26 22:48 33.94111 -118.45225 2644 ft 79 kts 255°
2026-04-26 22:48 33.93932 -118.45848 2934 ft 84 kts 256°
2026-04-26 22:48 33.93756 -118.46482 3278 ft 81 kts 256°
2026-04-26 22:49 33.93580 -118.47154 3507 ft 88 kts 255°
2026-04-26 22:49 33.93393 -118.47872 3705 ft 96 kts 252°
2026-04-26 22:49 33.93237 -118.48550 4036 ft 85 kts 258°
2026-04-26 22:49 33.93070 -118.49217 4367 ft 84 kts 256°
2026-04-26 22:50 33.92886 -118.49911 4560 ft 92 kts 259°
2026-04-26 22:50 33.92746 -118.50664 4846 ft 91 kts 261°
2026-04-26 22:50 33.92504 -118.51360 5074 ft 98 kts 230°
2026-04-26 22:50 33.91808 -118.51681 5111 ft 121 kts 192°
2026-04-26 22:51 33.90962 -118.51639 5151 ft 123 kts 184°
2026-04-26 22:51 33.90116 -118.51633 5172 ft 122 kts 192°
2026-04-26 22:51 33.89267 -118.51727 5126 ft 123 kts 194°
2026-04-26 22:51 33.88419 -118.51815 5124 ft 124 kts 189°
2026-04-26 22:52 33.87554 -118.51802 5124 ft 124 kts 186°
2026-04-26 22:52 33.86681 -118.51755 5067 ft 129 kts 184°
2026-04-26 22:52 33.85786 -118.51647 5031 ft 130 kts 184°
2026-04-26 22:52 33.84898 -118.51528 5058 ft 125 kts 184°
2026-04-26 22:53 33.84057 -118.51514 5073 ft 119 kts 192°
2026-04-26 22:53 33.83225 -118.51525 5038 ft 125 kts 185°
2026-04-26 22:53 33.82363 -118.51496 5022 ft 124 kts 188°
2026-04-26 22:53 33.81501 -118.51542 5001 ft 123 kts 191°
2026-04-26 22:54 33.80667 -118.51574 5051 ft 120 kts 189°
2026-04-26 22:54 33.79836 -118.51553 5089 ft 117 kts 188°
2026-04-26 22:54 33.79011 -118.51551 5067 ft 120 kts 186°
2026-04-26 22:54 33.78170 -118.51465 5065 ft 122 kts 184°
2026-04-26 22:55 33.77325 -118.51363 5046 ft 122 kts 186°
2026-04-26 22:55 33.76491 -118.51290 5057 ft 120 kts 188°
2026-04-26 22:55 33.75658 -118.51284 5047 ft 119 kts 189°
2026-04-26 22:55 33.74822 -118.51304 4983 ft 123 kts 190°
2026-04-26 22:56 33.73984 -118.51314 5020 ft 118 kts 188°
2026-04-26 22:56 33.73178 -118.51300 5103 ft 113 kts 187°
2026-04-26 22:56 33.72404 -118.51267 5187 ft 111 kts 186°
2026-04-26 22:56 33.71606 -118.51235 5125 ft 121 kts 189°
2026-04-26 22:57 33.70751 -118.51247 5099 ft 123 kts 189°
2026-04-26 22:57 33.69887 -118.51234 5065 ft 126 kts 187°
2026-04-26 22:57 33.69015 -118.51192 5058 ft 125 kts 187°
2026-04-26 22:57 33.68150 -118.51148 5057 ft 124 kts 187°
2026-04-26 22:58 33.67287 -118.51109 5058 ft 124 kts 187°
2026-04-26 22:58 33.66422 -118.51076 5061 ft 124 kts 188°
2026-04-26 22:58 33.65561 -118.51035 5059 ft 124 kts 187°
2026-04-26 22:58 33.64715 -118.51001 5060 ft 123 kts 187°
2026-04-26 22:59 33.63862 -118.50968 5061 ft 122 kts 187°
2026-04-26 22:59 33.63012 -118.50929 5062 ft 122 kts 187°
2026-04-26 22:59 33.62161 -118.50884 5061 ft 122 kts 186°
2026-04-26 22:59 33.61315 -118.50851 5063 ft 121 kts 187°
2026-04-26 23:00 33.60469 -118.50812 5065 ft 122 kts 187°
2026-04-26 23:00 33.59617 -118.50765 5065 ft 123 kts 187°
2026-04-26 23:00 33.58765 -118.50722 5066 ft 122 kts 187°
2026-04-26 23:00 33.57918 -118.50675 5067 ft 122 kts 187°
2026-04-26 23:01 33.57068 -118.50620 5071 ft 122 kts 186°
2026-04-26 23:01 33.56222 -118.50574 5069 ft 122 kts 186°
2026-04-26 23:01 33.55493 -118.50053 5060 ft 137 kts 124°
2026-04-26 23:01 33.55312 -118.48944 5067 ft 136 kts 101°
2026-04-26 23:02 33.55000 -118.47873 5067 ft 136 kts 118°
2026-04-26 23:02 33.54566 -118.46861 5070 ft 137 kts 121°
2026-04-26 23:02 33.54117 -118.45854 5073 ft 137 kts 121°
2026-04-26 23:02 33.53667 -118.44839 5075 ft 138 kts 121°
2026-04-26 23:03 33.53217 -118.43819 5077 ft 138 kts 121°
2026-04-26 23:03 33.52767 -118.42801 5078 ft 138 kts 121°
2026-04-26 23:03 33.52319 -118.41782 5071 ft 137 kts 121°
2026-04-26 23:03 33.51871 -118.40767 5072 ft 140 kts 122°
2026-04-26 23:04 33.51395 -118.39693 5082 ft 150 kts 122°
2026-04-26 23:04 33.50903 -118.38573 5088 ft 154 kts 121°
2026-04-26 23:04 33.50406 -118.37445 5087 ft 156 kts 121°
2026-04-26 23:04 33.49899 -118.36290 5086 ft 157 kts 121°
2026-04-26 23:05 33.49390 -118.35130 5087 ft 157 kts 121°
2026-04-26 23:05 33.48880 -118.33972 5087 ft 157 kts 121°
2026-04-26 23:05 33.48370 -118.32814 5087 ft 157 kts 121°
2026-04-26 23:05 33.47859 -118.31658 5086 ft 157 kts 122°
2026-04-26 23:06 33.47349 -118.30502 5086 ft 157 kts 121°
2026-04-26 23:06 33.46842 -118.29345 5086 ft 157 kts 121°
2026-04-26 23:06 33.46333 -118.28190 5085 ft 157 kts 121°
2026-04-26 23:06 33.45828 -118.27051 5085 ft 157 kts 121°
2026-04-26 23:07 33.45315 -118.25896 5085 ft 157 kts 122°
2026-04-26 23:07 33.44969 -118.25115 5085 ft 157 kts 122°
2026-04-26 23:07 33.44292 -118.23581 5085 ft 158 kts 122°
2026-04-26 23:07 33.43779 -118.22421 5083 ft 158 kts 122°
2026-04-26 23:08 33.43265 -118.21259 5084 ft 158 kts 122°
2026-04-26 23:08 33.42748 -118.20090 5082 ft 160 kts 122°
2026-04-26 23:08 33.42221 -118.18901 5083 ft 163 kts 121°
2026-04-26 23:08 33.41689 -118.17698 5079 ft 163 kts 122°
2026-04-26 23:09 33.41160 -118.16502 5079 ft 162 kts 122°
2026-04-26 23:09 33.40634 -118.15315 5076 ft 161 kts 122°
2026-04-26 23:09 33.40112 -118.14137 5073 ft 160 kts 122°
2026-04-26 23:09 33.39600 -118.12983 5070 ft 159 kts 122°
2026-04-26 23:10 33.39084 -118.11817 5062 ft 158 kts 122°
2026-04-26 23:10 33.38568 -118.10655 5062 ft 158 kts 122°
2026-04-26 23:10 33.38053 -118.09495 5061 ft 158 kts 121°
2026-04-26 23:10 33.37539 -118.08333 5060 ft 158 kts 121°
2026-04-26 23:11 33.37025 -118.07172 5063 ft 158 kts 121°
2026-04-26 23:11 33.36510 -118.06016 5055 ft 157 kts 121°
2026-04-26 23:11 33.35997 -118.04864 5059 ft 157 kts 120°
2026-04-26 23:11 33.35491 -118.03730 5059 ft 157 kts 121°
2026-04-26 23:12 33.34982 -118.02581 5058 ft 156 kts 121°
2026-04-26 23:12 33.34471 -118.01432 5059 ft 156 kts 121°
2026-04-26 23:12 33.33960 -118.00283 5059 ft 156 kts 121°
2026-04-26 23:12 33.33449 -117.99135 5059 ft 156 kts 121°
2026-04-26 23:13 33.32938 -117.97987 5058 ft 156 kts 121°
2026-04-26 23:13 33.32428 -117.96842 5058 ft 156 kts 121°
2026-04-26 23:13 33.31917 -117.95695 5058 ft 156 kts 121°
2026-04-26 23:13 33.31407 -117.94551 5055 ft 156 kts 121°
2026-04-26 23:14 33.30897 -117.93406 5055 ft 156 kts 121°
2026-04-26 23:14 33.30393 -117.92275 5055 ft 156 kts 121°
2026-04-26 23:14 33.29882 -117.91130 5055 ft 156 kts 121°
2026-04-26 23:14 33.29371 -117.89986 5055 ft 156 kts 121°
2026-04-26 23:15 33.28860 -117.88839 5055 ft 156 kts 121°
2026-04-26 23:15 33.28348 -117.87693 5055 ft 156 kts 121°
2026-04-26 23:15 33.27836 -117.86546 5055 ft 156 kts 121°
2026-04-26 23:15 33.27323 -117.85398 5055 ft 157 kts 121°
2026-04-26 23:16 33.26984 -117.84639 5053 ft 157 kts 121°
2026-04-26 23:16 33.26304 -117.83118 5056 ft 157 kts 121°
2026-04-26 23:16 33.25792 -117.81972 5056 ft 156 kts 121°
2026-04-26 23:16 33.25279 -117.80827 5053 ft 156 kts 121°
2026-04-26 23:17 33.24768 -117.79684 5058 ft 156 kts 121°
2026-04-26 23:17 33.24259 -117.78547 5058 ft 155 kts 120°
2026-04-26 23:17 33.23750 -117.77409 5058 ft 155 kts 120°
2026-04-26 23:17 33.23414 -117.76658 5057 ft 155 kts 121°
2026-04-26 23:18 33.22904 -117.75524 5058 ft 155 kts 121°
2026-04-26 23:18 33.22395 -117.74386 5055 ft 156 kts 120°
2026-04-26 23:18 33.21886 -117.73246 5061 ft 155 kts 121°
2026-04-26 23:18 33.21374 -117.72109 5061 ft 155 kts 121°
2026-04-26 23:19 33.20864 -117.70973 5066 ft 155 kts 120°
2026-04-26 23:19 33.20358 -117.69833 5066 ft 155 kts 120°
2026-04-26 23:19 33.19857 -117.68689 5067 ft 156 kts 120°
2026-04-26 23:19 33.19360 -117.67539 5067 ft 156 kts 120°
2026-04-26 23:20 33.18865 -117.66386 5068 ft 156 kts 119°
2026-04-26 23:20 33.18378 -117.65246 5068 ft 156 kts 119°
2026-04-26 23:20 33.17888 -117.64088 5068 ft 156 kts 119°
2026-04-26 23:20 33.17401 -117.62927 5069 ft 156 kts 119°
2026-04-26 23:21 33.16918 -117.61764 5069 ft 157 kts 118°
2026-04-26 23:21 33.16440 -117.60596 5069 ft 157 kts 118°
2026-04-26 23:21 33.15968 -117.59425 5070 ft 157 kts 117°
2026-04-26 23:21 33.15501 -117.58251 5070 ft 157 kts 117°
2026-04-26 23:22 33.15038 -117.57073 5067 ft 157 kts 117°
2026-04-26 23:22 33.14436 -117.55513 5066 ft 156 kts 116°
2026-04-26 23:22 33.14138 -117.54733 5065 ft 156 kts 116°
2026-04-26 23:22 33.13693 -117.53553 5065 ft 156 kts 116°
2026-04-26 23:23 33.13253 -117.52369 5065 ft 156 kts 116°
2026-04-26 23:23 33.12816 -117.51182 5065 ft 156 kts 116°
2026-04-26 23:23 33.12384 -117.49994 5064 ft 156 kts 115°
2026-04-26 23:23 33.11959 -117.48805 5064 ft 156 kts 115°
2026-04-26 23:24 33.11537 -117.47615 5066 ft 156 kts 115°
2026-04-26 23:24 33.11122 -117.46425 5069 ft 155 kts 115°
2026-04-26 23:24 33.10712 -117.45238 5069 ft 155 kts 114°
2026-04-26 23:24 33.10306 -117.44049 5068 ft 155 kts 114°
2026-04-26 23:25 33.09909 -117.42877 5065 ft 154 kts 114°
2026-04-26 23:25 33.09508 -117.41689 5065 ft 155 kts 114°
2026-04-26 23:25 33.09106 -117.40505 5061 ft 153 kts 117°
2026-04-26 23:25 33.08453 -117.39532 5061 ft 150 kts 139°
2026-04-26 23:26 33.07731 -117.38632 5065 ft 151 kts 136°
2026-04-26 23:26 33.07034 -117.37692 5068 ft 152 kts 134°
2026-04-26 23:26 33.06347 -117.36736 5061 ft 152 kts 133°
2026-04-26 23:26 33.05660 -117.35776 5064 ft 153 kts 133°
2026-04-26 23:27 33.04967 -117.34810 5067 ft 154 kts 134°
2026-04-26 23:27 33.04277 -117.33848 5080 ft 155 kts 134°
2026-04-26 23:27 33.03585 -117.32867 5081 ft 155 kts 130°
2026-04-26 23:27 33.02991 -117.31801 5081 ft 153 kts 126°
2026-04-26 23:28 33.02421 -117.30733 5078 ft 152 kts 126°
2026-04-26 23:28 33.01856 -117.29676 5076 ft 151 kts 126°
2026-04-26 23:28 33.01296 -117.28624 5075 ft 150 kts 126°
2026-04-26 23:28 33.00737 -117.27574 5075 ft 150 kts 126°
2026-04-26 23:29 33.00176 -117.26527 5078 ft 150 kts 126°
2026-04-26 23:29 32.99611 -117.25482 5078 ft 150 kts 125°
2026-04-26 23:29 32.99048 -117.24449 5078 ft 151 kts 126°
2026-04-26 23:29 32.98471 -117.23389 5078 ft 151 kts 125°
2026-04-26 23:30 32.97907 -117.22355 5080 ft 152 kts 126°
2026-04-26 23:30 32.97332 -117.21296 5081 ft 149 kts 125°
2026-04-26 23:30 32.96768 -117.20252 5079 ft 151 kts 125°
2026-04-26 23:30 32.96195 -117.19197 5085 ft 153 kts 126°
2026-04-26 23:31 32.95612 -117.18121 5069 ft 156 kts 125°
2026-04-26 23:31 32.95028 -117.17034 5069 ft 155 kts 126°
2026-04-26 23:31 32.94460 -117.15942 5066 ft 154 kts 124°
2026-04-26 23:31 32.93899 -117.14852 5064 ft 154 kts 124°
2026-04-26 23:32 32.93342 -117.13775 5063 ft 152 kts 125°
2026-04-26 23:32 32.92794 -117.12711 5059 ft 154 kts 125°
2026-04-26 23:32 32.92243 -117.11621 5065 ft 154 kts 125°
2026-04-26 23:32 32.91679 -117.10520 5064 ft 157 kts 125°
2026-04-26 23:33 32.91117 -117.09404 5069 ft 158 kts 125°
2026-04-26 23:33 32.90550 -117.08280 5052 ft 160 kts 125°
2026-04-26 23:33 32.89967 -117.07141 4973 ft 161 kts 125°
2026-04-26 23:33 32.89373 -117.06014 4853 ft 159 kts 125°
2026-04-26 23:34 32.88787 -117.04902 4712 ft 158 kts 124°
2026-04-26 23:34 32.88210 -117.03793 4596 ft 158 kts 125°
2026-04-26 23:34 32.87630 -117.02677 4456 ft 160 kts 125°
2026-04-26 23:34 32.87043 -117.01561 4345 ft 157 kts 124°
2026-04-26 23:35 32.86460 -117.00489 4285 ft 154 kts 125°
2026-04-26 23:35 32.85881 -116.99432 4279 ft 151 kts 124°
2026-04-26 23:35 32.85317 -116.98400 4272 ft 147 kts 125°
2026-04-26 23:35 32.84775 -116.97374 4270 ft 146 kts 124°
2026-04-26 23:36 32.84236 -116.96357 4271 ft 145 kts 126°
2026-04-26 23:36 32.83699 -116.95329 4269 ft 147 kts 125°
2026-04-26 23:36 32.83153 -116.94298 4270 ft 146 kts 125°
2026-04-26 23:36 32.82612 -116.93298 4276 ft 141 kts 125°
2026-04-26 23:37 32.82087 -116.92294 4274 ft 145 kts 124°
2026-04-26 23:37 32.81562 -116.91268 4274 ft 145 kts 124°
2026-04-26 23:37 32.81035 -116.90248 4283 ft 148 kts 124°
2026-04-26 23:37 32.80482 -116.89204 4287 ft 152 kts 126°
2026-04-26 23:38 32.79927 -116.88120 4285 ft 154 kts 124°
2026-04-26 23:38 32.79138 -116.87381 4267 ft 145 kts 176°
2026-04-26 23:38 32.78142 -116.87295 4279 ft 144 kts 186°
2026-04-26 23:38 32.77147 -116.87231 4283 ft 142 kts 184°
2026-04-26 23:39 32.76153 -116.87188 4285 ft 144 kts 187°
2026-04-26 23:39 32.75151 -116.87139 4289 ft 145 kts 185°
2026-04-26 23:39 32.74129 -116.87106 4284 ft 148 kts 184°
2026-04-26 23:39 32.73118 -116.87093 4282 ft 147 kts 186°
2026-04-26 23:40 32.72111 -116.87050 4271 ft 142 kts 185°
2026-04-26 23:40 32.71146 -116.87016 4271 ft 136 kts 186°
2026-04-26 23:40 32.70363 -116.87408 4267 ft 121 kts 237°
2026-04-26 23:40 32.69953 -116.88270 4249 ft 122 kts 244°
2026-04-26 23:41 32.69535 -116.89191 4127 ft 129 kts 244°
2026-04-26 23:41 32.69100 -116.90154 4005 ft 135 kts 245°
2026-04-26 23:41 32.68658 -116.91131 3882 ft 134 kts 244°
2026-04-26 23:41 32.68227 -116.92091 3751 ft 133 kts 244°
2026-04-26 23:42 32.67788 -116.93052 3628 ft 132 kts 244°
2026-04-26 23:42 32.66957 -116.94977 3366 ft 129 kts 258°
2026-04-26 23:42 32.67207 -116.95913 3389 ft 120 kts 306°
2026-04-26 23:43 32.67564 -116.96408 3360 ft 121 kts 307°